Location: Brno
(49.2000°N, 16.6330°E)
Time: 10:02:23
(UTC+02:00)

Cosmos 1603 - Visible Passes

Search period start: 01 May 2016 00:00
Search period end: 11 May 2016 00:00
Orbit: 832 x 859 km, 71.0° (Epoch: 30 April)

Date Brightness Start Highest point End Pass type
(mag) Time Alt. Az. Time Alt. Az. Time Alt. Az.
01 May 5.1 02:17:57 22° SE 02:20:02 28° ESE 02:24:46 10° NE visible
01 May 4.0 03:59:51 19° SW 04:03:52 55° NW 04:09:24 10° NNE visible
02 May 5.1 02:04:24 23° SE 02:06:09 28° ESE 02:10:51 10° NE visible
02 May 4.0 03:46:18 21° SW 03:49:57 56° WNW 03:55:31 10° NNE visible
03 May 5.0 01:50:50 24° SE 01:52:17 27° ESE 01:56:55 10° NE visible
03 May 4.0 03:32:43 24° SW 03:36:03 58° WNW 03:41:37 10° NNE visible
04 May 5.0 01:37:12 24° ESE 01:38:25 26° ESE 01:42:59 10° NE visible
04 May 3.9 03:19:05 27° SW 03:22:09 59° WNW 03:27:44 10° NNE visible
05 May 5.0 01:23:33 24° ESE 01:24:31 25° ESE 01:29:02 10° NE visible
05 May 3.9 03:05:26 29° SW 03:08:14 61° WNW 03:13:50 10° NNE visible
06 May 5.0 01:09:52 24° ESE 01:10:39 25° ESE 01:15:06 10° NE visible
06 May 3.9 02:51:45 32° SW 02:54:21 62° WNW 02:59:56 10° NNE visible
06 May 5.7 04:36:08 10° WNW 04:39:40 17° NW 04:43:12 10° N visible
07 May 5.1 00:56:10 23° ESE 00:56:46 24° ESE 01:01:09 10° NE visible
07 May 3.9 02:38:02 34° SW 02:40:26 64° WNW 02:46:03 10° NNE visible
07 May 5.7 04:22:08 10° WNW 04:25:44 17° NW 04:29:19 10° N visible
08 May 5.1 00:42:25 23° ESE 00:42:53 23° ESE 00:47:13 10° NE visible
08 May 3.8 02:24:17 36° SW 02:26:32 65° WNW 02:32:09 10° NNE visible
08 May 5.7 04:08:09 10° WNW 04:11:48 17° NW 04:15:27 10° N visible
09 May 5.1 00:28:38 22° ESE 00:29:00 23° ESE 00:33:17 10° NE visible
09 May 3.8 02:10:30 38° SW 02:12:38 67° WNW 02:18:15 10° NNE visible
09 May 5.7 03:54:10 10° WNW 03:57:52 18° NW 04:01:34 10° N visible
10 May 5.1 00:14:49 22° ESE 00:15:08 22° ESE 00:19:20 10° NE visible
10 May 3.8 01:56:41 40° SW 01:58:43 69° WNW 02:04:21 10° NNE visible
10 May 5.7 03:40:11 10° WNW 03:43:56 18° NW 03:47:42 10° N visible
